�N����,����,�~����,�C��,���x,�C��,����,���ϕ���,�ő�u�ԕ���,�ő厞����,���˗�,�I�_���x,�n�����x
"16/07/01","01:00",0.0,21.2,95.1,1006.9,326.8,1.1,1.6,311.6,0.00,20.4,23.2
"16/07/01","02:00",0.0,20.9,95.7,1007.4,319.3,1.1,1.3,326.8,0.00,20.2,23.1
"16/07/01","03:00",0.0,20.5,96.3,1007.6,312.5,0.7,1.3,315.8,0.00,19.9,22.9
"16/07/01","04:00",0.0,20.5,96.5,1008.3,301.7,0.7,1.8,334.1,0.00,20.0,22.6
"16/07/01","05:00",0.0,21.0,96.7,1008.6,302.2,0.8,1.6,350.9,0.00,20.5,22.6
"16/07/01","06:00",0.0,22.0,96.0,1008.8,299.8,0.7,1.6,341.4,0.03,21.4,22.7
"16/07/01","07:00",0.0,23.3,93.1,1008.6,331.0,1.0,1.9,338.5,0.23,22.2,23.0
"16/07/01","08:00",0.0,25.2,85.4,1008.6,124.4,0.3,1.8,334.7,0.63,22.6,23.2
"16/07/01","09:00",0.0,26.7,78.3,1007.6,138.7,0.5,1.8,130.1,1.16,22.6,24.0
"16/07/01","10:00",0.0,27.1,77.9,1007.8,177.8,0.7,1.9,202.2,1.18,23.0,24.5
"16/07/01","11:00",0.0,28.8,71.6,1008.8,156.5,0.6,2.8,211.1,1.86,23.2,24.9
"16/07/01","12:00",0.0,29.9,67.9,1009.3,138.9,1.1,3.7,194.6,2.67,23.4,26.2
"16/07/01","13:00",0.0,31.4,60.8,1007.8,173.5,1.5,3.5,224.5,2.67,23.0,27.0
"16/07/01","14:00",0.0,32.0,57.2,1007.6,179.2,0.7,3.5,205.0,2.47,22.5,27.3
"16/07/01","15:00",0.0,32.4,56.8,1006.4,161.8,1.3,3.6,206.1,2.27,22.8,27.6
"16/07/01","16:00",0.0,31.4,60.8,1006.0,219.8,1.8,5.0,195.2,1.33,23.0,27.8
"16/07/01","17:00",0.0,30.7,61.5,1005.2,229.1,1.0,4.0,222.4,0.81,22.5,27.9
"16/07/01","18:00",0.0,29.7,63.1,1004.5,236.5,1.1,4.2,232.4,0.34,22.0,27.4
"16/07/01","19:00",0.0,27.7,75.7,1005.0,285.9,0.3,2.0,218.9,0.08,23.1,26.7
"16/07/01","20:00",0.0,25.4,83.2,1005.7,305.7,0.5,1.2,339.3,0.00,22.4,26.3
"16/07/01","21:00",0.0,24.5,86.1,1006.7,311.9,0.7,1.4,345.3,0.00,22.1,25.8
"16/07/01","22:00",0.0,24.2,85.3,1006.9,291.8,0.5,1.8,338.6,0.00,21.6,25.3
"16/07/01","23:00",0.0,24.1,85.0,1007.1,318.4,1.3,2.9,348.6,0.00,21.5,24.9
"16/07/01","24:00",0.0,23.8,85.2,1007.1,265.1,0.6,2.0,239.1,0.00,21.2,24.6
"16/07/02","01:00",0.0,23.4,87.6,1006.2,300.0,0.7,1.6,337.3,0.00,21.3,24.6
"16/07/02","02:00",0.0,23.2,88.8,1006.2,290.0,0.6,1.6,336.7,0.00,21.3,24.2
"16/07/02","03:00",0.0,22.9,89.8,1006.0,294.2,0.7,1.6,326.5,0.00,21.2,24.3
"16/07/02","04:00",0.0,22.8,90.8,1006.2,300.6,0.8,1.1,316.2,0.00,21.3,24.1
"16/07/02","05:00",0.0,22.6,91.8,1006.0,298.2,0.8,1.3,318.6,0.00,21.2,24.0
"16/07/02","06:00",0.0,23.2,91.9,1006.4,307.2,0.6,1.3,310.3,0.02,21.8,24.0
"16/07/02","07:00",0.0,25.4,86.2,1006.4,312.9,0.3,1.1,316.2,0.26,23.0,24.0
"16/07/02","08:00",0.0,27.0,77.1,1006.2,57.0,0.3,1.4,357.6,0.66,22.7,24.5
"16/07/02","09:00",0.0,29.8,70.0,1006.7,178.0,1.5,2.9,223.8,2.04,23.8,25.2
"16/07/02","10:00",0.0,30.7,63.9,1006.9,210.8,1.6,5.4,223.6,2.26,23.1,26.2
"16/07/02","11:00",0.0,32.4,59.4,1006.4,212.9,2.0,8.6,205.6,2.96,23.5,27.2
"16/07/02","12:00",0.0,33.2,55.0,1006.9,217.7,2.1,8.6,210.6,3.55,23.0,28.3
"16/07/02","13:00",0.0,33.1,55.4,1005.5,212.7,3.4,11.1,222.8,3.44,23.0,28.9
"16/07/02","14:00",0.0,33.7,54.3,1005.7,215.7,2.8,8.6,229.6,3.39,23.2,28.5
"16/07/02","15:00",0.0,33.1,53.3,1005.2,234.3,1.6,8.6,197.9,2.90,22.4,29.2
"16/07/02","16:00",0.0,33.0,52.0,1005.7,242.4,1.1,7.2,230.8,2.21,21.9,29.4
"16/07/02","17:00",0.0,31.4,55.7,1005.5,219.5,1.2,5.1,223.0,1.03,21.5,29.0
"16/07/02","18:00",0.0,30.2,62.3,1003.6,247.4,1.0,3.9,225.7,0.19,22.2,28.2
"16/07/02","19:00",0.0,28.7,67.6,1002.9,249.2,0.3,3.7,230.6,0.04,22.2,27.6
"16/07/02","20:00",0.0,27.5,73.9,1004.1,351.9,0.8,2.9,226.9,0.00,22.5,27.3
"16/07/02","21:00",0.0,27.0,76.5,1004.8,342.3,1.1,4.1,349.4,0.00,22.6,26.8
"16/07/02","22:00",0.0,26.6,79.0,1005.0,3.6,1.2,2.1,358.5,0.00,22.7,26.3
"16/07/02","23:00",0.0,26.5,79.7,1004.5,316.0,1.0,1.8,1.9,0.00,22.7,26.0
"16/07/02","24:00",0.0,25.8,83.0,1004.3,319.7,0.7,2.1,357.7,0.00,22.7,25.7
"16/07/03","01:00",0.0,26.0,83.4,1004.1,306.0,0.3,2.1,346.8,0.00,23.0,25.6
"16/07/03","02:00",0.0,25.3,87.4,1004.1,333.6,0.3,1.3,342.9,0.00,23.1,25.4
"16/07/03","03:00",0.0,26.0,85.4,1003.6,238.3,0.6,1.9,235.1,0.00,23.4,25.2
"16/07/03","04:00",0.0,26.1,83.9,1003.4,12.7,0.3,2.9,237.2,0.00,23.2,25.3
"16/07/03","05:00",0.0,26.9,79.7,1004.1,263.5,1.2,3.9,225.6,0.00,23.1,25.0
"16/07/03","06:00",0.0,27.2,78.4,1004.5,261.9,1.0,4.0,343.1,0.02,23.2,25.0
"16/07/03","07:00",0.0,28.1,77.1,1004.3,238.8,1.3,6.4,203.4,0.26,23.7,25.1
"16/07/03","08:00",0.0,28.2,76.3,1004.3,239.8,1.0,5.0,223.3,0.41,23.7,25.3
"16/07/03","09:00",0.0,28.8,74.3,1003.8,231.3,1.1,4.8,207.6,0.52,23.8,25.7
"16/07/03","10:00",0.0,31.1,68.4,1005.0,244.9,0.7,3.3,227.9,1.21,24.6,25.9
"16/07/03","11:00",0.0,29.8,69.4,1004.8,310.1,0.5,5.0,220.0,1.60,23.6,26.8
"16/07/03","12:00",0.0,30.8,66.0,1005.7,226.1,0.8,3.6,209.0,1.72,23.8,27.5
"16/07/03","13:00",0.0,31.7,62.4,1005.2,232.1,1.2,4.4,208.2,2.30,23.7,28.3
"16/07/03","14:00",0.0,31.4,64.6,1004.8,252.9,0.7,4.9,215.6,1.52,24.0,28.6
"16/07/03","15:00",0.0,31.4,65.8,1004.3,345.4,0.2,3.5,210.5,0.91,24.3,28.2
"16/07/03","16:00",0.0,31.7,65.9,1003.6,217.5,0.6,2.8,226.6,0.69,24.6,28.3
"16/07/03","17:00",0.0,31.4,59.6,1003.6,283.6,0.7,4.5,12.4,0.50,22.6,27.9
"16/07/03","18:00",0.0,27.2,78.9,1003.8,313.4,0.8,6.3,349.7,0.15,23.3,27.4
"16/07/03","19:00",0.0,26.7,79.0,1005.0,315.7,1.0,3.6,344.2,0.02,22.8,27.2
"16/07/03","20:00",0.0,26.1,82.1,1006.0,327.0,0.8,2.7,348.1,0.00,22.8,26.9
"16/07/03","21:00",0.0,25.1,87.5,1006.2,333.2,1.0,2.0,349.5,0.00,22.9,26.4
"16/07/03","22:00",0.0,24.6,89.1,1006.4,296.1,0.5,1.8,346.9,0.00,22.7,25.9
"16/07/03","23:00",0.0,24.1,90.5,1006.2,334.2,1.0,1.4,338.5,0.00,22.5,25.7
"16/07/03","24:00",0.0,23.9,91.4,1006.4,312.4,0.7,1.6,344.4,0.00,22.5,25.4
"16/07/04","01:00",0.0,23.4,92.7,1006.2,315.0,0.8,1.2,324.3,0.00,22.2,25.2
"16/07/04","02:00",0.0,23.5,92.9,1006.7,286.4,0.6,1.3,321.7,0.00,22.3,25.1
"16/07/04","03:00",0.0,23.7,93.5,1006.2,324.4,0.8,1.6,330.9,0.00,22.6,24.8
"16/07/04","04:00",0.0,23.4,93.8,1006.7,288.8,0.7,1.2,326.4,0.00,22.4,24.7
"16/07/04","05:00",0.0,23.9,93.2,1007.6,300.7,0.6,1.4,341.3,0.00,22.8,24.7
"16/07/04","06:00",0.0,24.3,92.7,1007.1,296.0,0.3,1.3,346.2,0.03,23.1,24.6
"16/07/04","07:00",0.0,25.5,89.0,1007.1,328.4,0.5,1.3,338.0,0.11,23.6,24.8
"16/07/04","08:00",0.0,29.3,74.3,1007.1,93.4,0.7,1.7,72.1,1.16,24.3,25.3
"16/07/04","09:00",0.0,29.1,75.8,1007.1,191.4,1.3,2.8,228.1,1.42,24.4,26.1
"16/07/04","10:00",0.0,31.3,69.0,1007.8,119.5,0.7,2.8,187.9,1.69,25.0,26.8
"16/07/04","11:00",0.0,32.9,62.6,1008.3,347.8,0.7,3.5,213.4,2.14,24.9,27.6
"16/07/04","12:00",0.0,32.5,62.2,1008.3,236.9,0.6,3.9,228.8,2.56,24.4,28.8
"16/07/04","13:00",0.0,33.2,61.4,1007.8,224.0,0.6,3.9,200.9,1.85,24.8,29.0
"16/07/04","14:00",0.0,33.4,58.9,1007.4,219.0,1.7,4.5,221.7,2.22,24.3,29.5
"16/07/04","15:00",0.0,28.9,73.1,1007.4,346.1,1.7,6.4,324.5,1.87,23.6,29.2
"16/07/04","16:00",0.0,28.7,74.1,1006.7,335.8,0.7,3.5,0.3,0.87,23.7,28.9
"16/07/04","17:00",0.0,29.1,71.9,1006.2,11.8,0.7,2.7,357.8,0.56,23.6,28.7
"16/07/04","18:00",0.0,27.4,75.1,1006.2,345.8,1.5,2.6,342.6,0.08,22.6,28.2
"16/07/04","19:00",0.0,26.2,83.5,1007.6,330.7,0.7,2.7,350.4,0.04,23.2,27.6
"16/07/04","20:00",0.0,25.7,82.3,1008.6,316.8,0.6,3.4,351.2,0.01,22.5,26.9
"16/07/04","21:00",0.0,24.4,87.4,1009.3,327.3,0.8,1.9,335.4,0.00,22.2,26.4
"16/07/04","22:00",0.0,24.0,88.8,1009.7,312.1,0.8,2.0,335.6,0.00,22.1,26.2
"16/07/04","23:00",0.0,23.7,88.9,1010.0,307.3,0.6,2.1,346.9,0.00,21.8,25.7
"16/07/04","24:00",0.0,23.8,89.1,1010.0,332.2,0.8,2.1,346.2,0.00,21.9,25.8
"16/07/05","01:00",0.0,23.8,88.6,1009.7,311.2,0.6,1.9,336.8,0.00,21.8,25.3
"16/07/05","02:00",0.0,23.3,89.7,1010.0,317.6,1.1,1.7,328.9,0.00,21.6,25.2
"16/07/05","03:00",0.0,23.4,90.3,1009.7,334.2,1.5,3.1,337.9,0.00,21.8,25.1
"16/07/05","04:00",0.0,23.4,91.1,1010.0,342.9,1.6,3.1,342.9,0.00,21.9,24.9
"16/07/05","05:00",0.0,23.1,91.3,1010.7,321.0,1.1,3.2,343.1,0.00,21.6,24.7
"16/07/05","06:00",0.0,23.9,90.7,1010.4,320.9,0.5,2.2,344.7,0.02,22.3,24.5
"16/07/05","07:00",0.0,27.0,80.0,1010.7,157.1,0.5,1.7,353.0,0.45,23.3,24.6
"16/07/05","08:00",0.0,29.1,71.2,1011.2,39.1,0.7,1.9,7.4,1.04,23.4,25.2
"16/07/05","09:00",0.0,30.4,68.5,1011.9,173.8,0.8,1.7,352.3,1.75,24.0,26.0
"16/07/05","10:00",0.0,32.5,62.3,1012.6,28.7,0.7,2.1,358.1,2.55,24.4,27.2
"16/07/05","11:00",0.0,34.5,54.4,1013.0,254.0,1.2,3.6,198.8,3.30,24.0,28.7
"16/07/05","12:00",0.0,34.5,53.9,1012.8,154.5,1.3,3.4,343.8,2.79,23.8,29.9
"16/07/05","13:00",0.0,35.8,48.3,1012.1,202.7,1.6,3.4,223.2,2.78,23.2,30.6
"16/07/05","14:00",0.0,35.0,52.8,1011.6,268.0,0.8,4.5,204.7,2.77,24.0,30.7
"16/07/05","15:00",0.0,35.2,52.5,1010.9,252.8,0.3,2.8,218.0,1.38,24.1,30.7
"16/07/05","16:00",0.0,34.2,55.4,1010.2,288.0,0.3,4.9,224.2,1.71,24.0,31.1
"16/07/05","17:00",0.0,33.5,60.4,1009.0,347.0,0.3,1.4,199.2,0.45,24.8,30.7
"16/07/05","18:00",0.0,32.0,59.6,1009.0,94.9,0.8,2.6,142.4,0.25,23.2,29.8
"16/07/05","19:00",0.0,30.7,65.0,1009.0,85.8,0.7,2.2,83.5,0.06,23.4,29.3
"16/07/05","20:00",0.0,28.4,74.3,1009.5,307.2,0.1,1.4,359.8,0.00,23.4,28.8
"16/07/05","21:00",0.0,27.5,72.9,1010.0,307.0,0.6,1.4,345.0,0.00,22.2,28.1
"16/07/05","22:00",0.0,27.5,75.6,1010.2,313.3,0.3,1.3,349.8,0.00,22.8,27.7
"16/07/05","23:00",0.0,27.2,78.7,1010.4,117.9,0.6,5.4,197.3,0.00,23.2,27.5
"16/07/05","24:00",0.0,26.6,79.1,1010.9,32.3,0.7,2.1,36.9,0.00,22.7,27.1
"16/07/06","01:00",0.0,26.3,79.4,1011.2,58.4,0.3,2.6,350.5,0.00,22.5,26.7
"16/07/06","02:00",0.0,26.0,79.9,1011.6,55.4,0.6,2.2,39.2,0.00,22.3,26.4
"16/07/06","03:00",0.0,25.7,80.8,1011.9,18.8,0.3,1.9,86.7,0.00,22.2,26.4
"16/07/06","04:00",0.0,25.5,80.8,1011.9,19.5,0.5,1.7,108.7,0.00,22.0,26.1
"16/07/06","05:00",0.0,25.2,82.0,1012.3,14.6,0.5,1.8,9.9,0.00,21.9,25.8
"16/07/06","06:00",0.0,25.1,84.8,1012.3,297.6,0.5,1.4,351.2,0.05,22.4,25.6
"16/07/06","07:00",0.0,27.0,76.8,1012.6,107.0,0.6,1.3,129.4,0.32,22.6,26.0
"16/07/06","08:00",0.0,27.3,75.2,1012.3,120.4,0.6,1.8,141.9,0.50,22.6,26.2
"16/07/06","09:00",0.0,28.1,74.5,1011.2,157.6,1.2,2.9,225.5,0.86,23.2,26.6
"16/07/06","10:00",0.0,30.6,64.8,1012.1,163.9,1.2,3.6,215.6,1.84,23.3,27.8
"16/07/06","11:00",0.0,33.1,58.6,1012.8,195.9,1.2,3.7,126.1,3.37,23.9,29.5
"16/07/06","12:00",0.0,33.7,57.9,1012.3,196.8,1.2,7.4,197.7,2.31,24.3,30.5
"16/07/06","13:00",0.0,35.1,49.6,1012.1,222.0,1.3,5.6,211.1,2.93,23.0,31.2
"16/07/06","14:00",0.0,34.0,49.9,1011.4,225.6,1.8,5.1,185.5,3.02,22.1,30.8
"16/07/06","15:00",0.0,34.5,47.6,1010.7,219.0,2.0,5.5,223.2,2.27,21.8,31.0
"16/07/06","16:00",0.0,35.6,44.3,1010.0,238.9,1.1,4.7,208.6,2.17,21.6,31.2
"16/07/06","17:00",0.0,33.4,50.7,1009.3,317.0,0.6,4.0,230.6,1.31,21.8,30.9
"16/07/06","18:00",0.0,31.7,57.7,1007.8,222.0,1.3,3.1,224.2,0.15,22.4,30.2
"16/07/06","19:00",0.0,30.2,62.9,1007.4,233.4,1.2,3.7,228.1,0.02,22.4,29.7
"16/07/06","20:00",0.0,28.3,65.5,1007.8,344.1,1.0,2.7,194.5,0.00,21.3,28.9
"16/07/06","21:00",0.0,27.8,65.3,1008.6,334.2,1.0,2.6,346.4,0.00,20.7,28.3
"16/07/06","22:00",0.0,27.0,70.7,1008.8,316.3,0.7,2.0,1.5,0.00,21.3,27.8
"16/07/06","23:00",0.0,26.8,71.9,1009.5,304.0,0.5,1.6,355.0,0.00,21.3,27.7
"16/07/06","24:00",0.0,26.3,75.8,1009.5,347.9,1.0,1.7,238.4,0.00,21.7,27.1
"16/07/07","01:00",0.0,25.9,79.3,1010.0,331.1,0.5,1.6,355.2,0.00,22.1,27.0
"16/07/07","02:00",0.0,25.3,82.1,1010.0,317.6,0.5,1.6,2.7,0.00,22.1,26.7
"16/07/07","03:00",0.0,24.3,85.9,1010.2,297.5,0.5,1.9,350.0,0.00,21.8,26.4
"16/07/07","04:00",0.0,23.8,88.5,1010.0,310.4,0.5,1.4,339.7,0.00,21.8,26.0
"16/07/07","05:00",0.0,23.5,89.5,1009.7,301.7,0.7,1.6,337.0,0.00,21.7,25.7
"16/07/07","06:00",0.0,24.3,88.4,1009.3,355.6,0.7,1.6,339.1,0.03,22.3,25.7
"16/07/07","07:00",0.0,28.2,73.7,1008.8,15.1,0.7,1.4,4.7,0.44,23.1,26.1
"16/07/07","08:00",0.0,30.4,66.5,1010.4,153.5,0.7,1.7,179.8,1.25,23.5,27.1
"16/07/07","09:00",0.0,32.6,60.5,1011.2,188.2,0.2,2.2,2.3,2.18,24.0,28.3
"16/07/07","10:00",0.0,31.8,60.2,1010.7,58.3,0.6,3.5,225.3,1.50,23.2,28.9
"16/07/07","11:00",0.0,33.4,56.2,1010.4,63.3,0.7,2.0,22.9,1.60,23.5,29.5
"16/07/07","12:00",0.0,34.6,54.0,1010.4,186.7,1.0,2.9,0.3,2.18,24.0,30.3
"16/07/07","13:00",0.0,34.0,51.5,1010.7,63.7,0.6,3.9,217.4,2.39,22.6,31.3
"16/07/07","14:00",0.0,34.4,54.0,1009.7,91.9,0.8,3.5,351.9,2.27,23.8,31.2
"16/07/07","15:00",0.0,34.1,55.8,1008.8,7.9,1.0,2.6,354.6,2.04,24.1,31.5
"16/07/07","16:00",0.0,34.3,51.3,1009.0,216.1,0.6,3.6,223.3,1.43,22.8,31.3
"16/07/07","17:00",0.0,33.5,53.2,1008.6,214.4,0.8,2.8,223.3,1.02,22.7,31.1
"16/07/07","18:00",0.0,32.5,58.4,1007.6,103.5,0.6,2.8,191.7,0.34,23.3,30.7
"16/07/07","19:00",0.0,30.3,65.5,1006.7,97.0,0.7,2.5,151.2,0.03,23.2,30.2
"16/07/07","20:00",0.0,28.7,71.9,1006.9,6.0,0.6,2.4,340.5,0.00,23.2,29.6
"16/07/07","21:00",0.0,27.3,80.1,1007.4,5.4,0.3,1.3,356.1,0.00,23.6,28.8
"16/07/07","22:00",0.0,26.4,82.8,1008.1,282.2,0.3,1.9,344.6,0.00,23.3,28.3
"16/07/07","23:00",0.0,26.3,83.8,1008.3,308.5,0.6,1.2,337.5,0.00,23.4,28.0
"16/07/07","24:00",0.0,26.2,82.2,1008.3,331.4,0.7,2.0,7.9,0.00,23.0,27.5
"16/07/08","01:00",0.0,25.5,83.7,1008.1,340.9,1.0,2.7,2.8,0.00,22.6,27.2
"16/07/08","02:00",0.0,24.9,86.8,1007.6,320.5,0.8,2.1,339.6,0.00,22.6,26.8
"16/07/08","03:00",0.0,24.8,86.5,1007.4,339.3,1.0,2.5,342.5,0.00,22.4,26.5
"16/07/08","04:00",0.0,24.6,86.9,1007.6,303.4,0.8,3.4,353.1,0.00,22.3,26.3
"16/07/08","05:00",0.0,24.4,87.8,1008.1,317.4,0.6,1.8,347.8,0.00,22.3,26.2
"16/07/08","06:00",0.0,24.5,88.2,1008.8,284.3,0.5,1.4,356.2,0.00,22.5,25.8
"16/07/08","07:00",0.0,25.4,86.8,1009.5,335.7,0.8,2.0,349.6,0.10,23.1,25.9
"16/07/08","08:00",0.0,25.6,87.4,1008.6,344.6,0.5,1.9,348.7,0.20,23.4,26.2
"16/07/08","09:00",0.2,26.2,87.3,1009.3,292.5,0.3,1.9,228.9,0.34,24.0,26.2
"16/07/08","10:00",0.0,27.1,83.1,1009.3,238.8,0.6,2.2,343.6,0.75,24.0,26.8
"16/07/08","11:00",0.0,28.3,75.8,1007.1,310.7,0.2,1.6,227.1,0.91,23.7,27.1
"16/07/08","12:00",0.0,28.5,73.4,1007.4,333.5,0.5,2.2,228.3,0.99,23.3,27.5
"16/07/08","13:00",0.0,29.5,67.5,1007.1,164.3,0.6,2.6,224.7,0.98,22.9,28.0
"16/07/08","14:00",0.0,29.6,66.7,1006.2,29.9,0.5,1.9,355.4,0.95,22.8,28.4
"16/07/08","15:00",0.0,29.4,67.7,1005.0,76.7,0.5,2.7,8.4,0.63,22.8,28.1
"16/07/08","16:00",0.0,28.3,68.9,1005.0,241.6,0.7,3.3,209.0,0.42,22.1,28.0
"16/07/08","17:00",0.2,26.5,81.7,1005.5,335.9,0.8,2.9,234.7,0.26,23.2,27.6
"16/07/08","18:00",1.4,25.0,88.9,1006.4,307.9,0.2,1.7,339.8,0.01,23.1,27.2
"16/07/08","19:00",1.4,24.4,91.6,1006.4,333.5,0.7,1.8,342.8,0.00,23.0,26.7
"16/07/08","20:00",0.6,24.0,93.1,1006.4,285.2,0.5,1.6,349.9,0.00,22.9,26.5
"16/07/08","21:00",0.2,23.8,93.6,1006.9,307.2,0.2,1.8,1.5,0.00,22.7,26.3
"16/07/08","22:00",0.6,23.0,93.5,1007.1,279.4,0.6,1.2,333.5,0.00,21.9,25.8
"16/07/08","23:00",0.6,22.6,94.3,1006.0,290.0,0.6,1.1,293.9,0.00,21.7,25.6
"16/07/08","24:00",1.2,22.6,94.5,1006.0,298.7,1.0,1.9,341.8,0.00,21.7,25.5
"16/07/09","01:00",1.6,22.7,94.9,1005.2,292.0,0.6,1.3,316.7,0.00,21.9,25.1
"16/07/09","02:00",2.8,23.0,94.9,1005.0,60.7,0.6,1.9,83.0,0.00,22.2,25.0
"16/07/09","03:00",6.0,22.3,93.9,1003.4,144.3,0.5,2.0,72.2,0.00,21.3,24.7
"16/07/09","04:00",6.4,21.9,94.4,1003.1,105.7,0.3,1.4,117.7,0.00,21.0,24.6
"16/07/09","05:00",4.6,21.6,94.9,1003.1,82.5,0.1,1.4,209.8,0.00,20.8,24.1
"16/07/09","06:00",1.8,21.6,95.4,1003.1,281.9,0.3,1.7,341.6,0.00,20.9,24.1
"16/07/09","07:00",2.0,21.8,95.5,1002.6,289.5,0.2,0.9,226.1,0.00,21.1,24.0
"16/07/09","08:00",0.6,22.4,95.1,1002.6,280.5,0.3,1.2,319.3,0.07,21.6,23.9
"16/07/09","09:00",4.0,22.3,94.7,1001.9,276.1,0.3,1.0,241.7,0.02,21.4,24.1
"16/07/09","10:00",4.2,22.5,94.6,1001.5,256.7,0.6,1.4,229.8,0.16,21.6,24.2
"16/07/09","11:00",0.4,24.7,90.4,1001.2,209.4,0.7,2.4,221.4,0.97,23.1,24.3
"16/07/09","12:00",0.0,27.2,82.3,999.6,202.2,0.3,2.4,234.9,1.98,24.0,25.8
"16/07/09","13:00",0.2,25.9,82.8,1000.0,113.5,0.5,2.0,356.5,0.57,22.8,26.3
"16/07/09","14:00",0.0,25.7,83.0,999.3,37.4,0.5,1.7,1.5,0.41,22.6,26.3
"16/07/09","15:00",0.0,25.8,84.7,999.1,232.1,0.6,2.0,196.2,0.74,23.1,26.2
"16/07/09","16:00",0.2,25.3,88.5,999.1,195.2,0.2,2.6,223.1,0.66,23.3,26.4
"16/07/09","17:00",0.0,25.7,85.7,999.3,249.6,0.2,1.3,120.4,0.47,23.2,26.7
"16/07/09","18:00",0.0,25.8,85.4,999.3,162.9,0.2,2.0,201.1,0.27,23.2,26.5
"16/07/09","19:00",0.0,25.0,89.2,1000.0,304.5,0.5,1.7,240.3,0.01,23.1,26.2
"16/07/09","20:00",0.0,24.3,92.1,1000.3,289.6,0.5,1.9,345.7,0.00,23.0,25.7
"16/07/09","21:00",0.0,24.1,93.2,1001.0,291.1,0.5,1.7,342.4,0.00,23.0,25.5
"16/07/09","22:00",0.0,24.1,93.5,1001.0,317.3,0.7,1.3,344.4,0.00,23.0,25.6
"16/07/09","23:00",0.0,23.5,94.0,1001.2,296.0,0.7,1.3,342.9,0.00,22.5,25.3
"16/07/09","24:00",0.0,23.3,94.9,1001.0,292.8,0.7,1.3,326.4,0.00,22.5,25.1
"16/07/10","01:00",0.0,23.1,95.3,1000.5,287.7,0.8,1.3,322.3,0.00,22.3,24.9
"16/07/10","02:00",0.0,22.9,95.5,1000.5,305.9,1.0,1.4,315.2,0.00,22.2,24.6
"16/07/10","03:00",0.0,23.1,95.4,1000.5,313.1,0.8,1.3,322.0,0.00,22.4,24.7
"16/07/10","04:00",0.0,22.6,95.3,1000.5,297.6,0.8,1.3,332.8,0.00,21.8,24.6
"16/07/10","05:00",0.0,22.5,95.8,1000.8,278.3,0.8,1.8,332.8,0.00,21.8,24.3
"16/07/10","06:00",0.0,23.0,95.6,1000.5,286.4,0.7,1.4,318.6,0.03,22.3,24.2
"16/07/10","07:00",0.0,24.5,92.5,1000.0,283.3,0.5,1.4,341.2,0.22,23.2,24.5
"16/07/10","08:00",0.0,26.4,83.8,1000.8,156.0,0.1,1.0,335.9,0.60,23.5,25.1
"16/07/10","09:00",0.0,26.9,82.1,999.6,240.4,0.3,1.7,223.8,0.83,23.6,25.6
"16/07/10","10:00",0.0,30.5,71.0,1001.0,73.4,0.6,2.4,357.7,2.22,24.7,26.5
"16/07/10","11:00",0.0,30.4,67.0,1001.0,205.1,1.0,2.9,219.1,2.60,23.6,28.0
"16/07/10","12:00",0.0,31.3,61.3,1000.0,342.7,0.6,3.9,214.7,2.49,23.0,29.0
"16/07/10","13:00",0.0,33.0,56.4,999.8,179.0,0.8,3.6,228.0,3.15,23.2,30.0
"16/07/10","14:00",0.0,33.7,54.0,1000.3,248.4,0.5,2.8,226.3,3.03,23.1,30.0
"16/07/10","15:00",0.0,32.0,56.5,998.9,245.6,0.8,3.4,224.6,1.56,22.3,30.2
"16/07/10","16:00",0.0,31.5,58.0,998.4,233.9,0.2,3.1,226.2,1.15,22.3,30.1
"16/07/10","17:00",0.0,31.4,60.0,997.9,326.8,0.1,1.9,205.2,0.94,22.7,29.9
"16/07/10","18:00",0.0,30.6,69.6,997.2,14.8,0.5,1.4,352.4,0.35,24.4,29.3
"16/07/10","19:00",0.0,27.9,77.6,997.0,303.2,0.3,1.7,357.7,0.04,23.7,28.7
"16/07/10","20:00",0.0,26.5,81.5,997.9,334.6,0.8,2.0,344.4,0.00,23.1,28.2
"16/07/10","21:00",0.0,25.4,84.5,998.6,290.3,0.3,2.1,343.9,0.00,22.6,27.8
"16/07/10","22:00",0.0,24.9,87.0,998.9,303.2,0.6,2.2,335.5,0.00,22.6,27.2
"16/07/10","23:00",0.0,24.5,88.3,999.1,311.3,0.7,1.4,347.3,0.00,22.5,26.7
"16/07/10","24:00",0.0,24.4,89.1,999.8,313.9,0.6,2.1,343.6,0.00,22.5,26.3
"16/07/11","01:00",0.0,24.1,90.9,999.3,308.9,0.8,1.9,343.9,0.00,22.6,26.0
"16/07/11","02:00",0.0,23.9,91.3,999.8,323.2,0.8,1.9,334.9,0.00,22.4,25.6
"16/07/11","03:00",0.0,23.8,92.1,999.8,320.9,0.8,2.1,341.1,0.00,22.5,25.6
"16/07/11","04:00",0.0,23.6,92.3,1000.5,317.0,1.0,2.1,337.0,0.00,22.3,25.4
"16/07/11","05:00",0.0,23.6,92.7,1000.8,331.8,1.1,2.2,334.4,0.00,22.4,25.3
"16/07/11","06:00",0.0,24.8,91.0,1001.5,332.9,1.0,3.1,343.1,0.09,23.3,25.2
"16/07/11","07:00",0.0,27.8,79.2,1000.8,14.5,0.5,2.5,12.7,0.65,23.9,25.7
"16/07/11","08:00",0.0,28.9,73.0,1001.2,136.9,0.6,1.7,222.2,1.25,23.6,26.5
"16/07/11","09:00",0.0,30.7,70.6,1001.7,59.8,0.3,1.6,354.1,1.84,24.8,27.6
"16/07/11","10:00",0.0,32.3,62.7,1001.9,62.1,0.6,2.2,230.8,2.38,24.3,28.6
"16/07/11","11:00",0.0,32.6,57.1,1001.7,230.3,1.6,4.5,209.2,3.05,23.0,30.1
"16/07/11","12:00",0.0,33.6,50.8,1001.5,217.5,1.1,4.4,225.3,3.17,22.0,31.0
"16/07/11","13:00",0.0,34.0,50.5,1001.5,215.1,1.1,3.9,227.2,3.33,22.3,31.7
"16/07/11","14:00",0.0,35.0,49.0,1001.0,244.8,1.0,4.8,206.3,2.98,22.7,31.7
"16/07/11","15:00",0.0,33.8,46.5,1000.0,253.6,0.7,4.3,218.2,2.43,20.8,31.7
"16/07/11","16:00",0.0,33.0,47.9,999.6,300.8,0.2,4.8,230.1,1.37,20.5,31.4
"16/07/11","17:00",0.0,33.6,48.8,999.6,229.7,0.2,1.6,213.4,1.15,21.4,31.0
"16/07/11","18:00",0.0,30.5,64.6,998.6,262.6,0.5,4.5,233.7,0.14,23.1,30.4
"16/07/11","19:00",0.0,29.7,67.4,998.6,288.0,0.3,1.9,231.5,0.02,23.1,29.8
"16/07/11","20:00",0.0,28.8,71.2,998.9,257.6,0.5,2.2,224.1,0.00,23.1,29.2
"16/07/11","21:00",0.0,28.2,73.9,999.3,307.5,0.3,2.6,358.4,0.00,23.1,28.7
"16/07/11","22:00",0.0,27.4,78.4,999.6,311.0,0.3,2.5,240.7,0.00,23.3,28.3
"16/07/11","23:00",0.0,27.0,81.4,999.6,315.7,0.5,1.3,341.2,0.00,23.6,27.8
"16/07/11","24:00",0.0,27.1,81.7,1000.0,292.8,0.5,1.4,233.5,0.00,23.7,27.8
"16/07/12","01:00",0.0,26.4,83.8,999.8,295.6,0.3,1.3,342.7,0.00,23.5,27.4
"16/07/12","02:00",0.0,25.8,86.3,999.8,335.6,0.7,1.7,353.8,0.00,23.4,27.1
"16/07/12","03:00",0.0,25.7,88.4,999.8,277.1,0.3,1.1,336.6,0.00,23.7,26.9
"16/07/12","04:00",0.0,25.6,89.0,1000.0,332.5,0.8,1.7,342.7,0.00,23.7,26.9
"16/07/12","05:00",0.0,25.6,89.1,1000.3,325.0,0.3,0.9,350.1,0.00,23.7,26.7
"16/07/12","06:00",0.0,25.8,88.4,1001.0,304.9,0.2,0.9,351.0,0.00,23.8,26.7
"16/07/12","07:00",3.0,25.6,91.6,1001.2,151.5,0.3,1.3,349.8,0.01,24.2,26.5
"16/07/12","08:00",1.6,26.3,91.8,1001.2,35.1,0.5,1.0,27.5,0.21,24.9,26.5
"16/07/12","09:00",0.8,26.7,90.2,1001.0,188.0,0.5,1.8,196.2,0.32,25.0,26.7
"16/07/12","10:00",0.4,27.2,89.8,1001.2,340.6,0.5,1.7,208.2,0.31,25.4,26.8
"16/07/12","11:00",0.4,27.8,87.0,1000.8,19.7,0.3,1.6,353.4,0.57,25.5,27.1
"16/07/12","12:00",0.2,28.3,84.4,1000.0,192.8,1.3,2.6,226.1,1.08,25.5,27.5
"16/07/12","13:00",0.0,29.6,79.9,1000.0,161.3,0.7,3.3,213.5,1.47,25.8,28.3
"16/07/12","14:00",0.0,29.6,78.4,999.8,178.3,0.2,2.7,178.8,1.07,25.5,28.6
"16/07/12","15:00",0.0,30.2,73.3,999.6,50.2,0.1,1.7,35.4,1.07,24.9,29.0
"16/07/12","16:00",0.0,30.2,74.8,999.3,3.3,0.2,1.8,222.0,0.81,25.3,28.8
"16/07/12","17:00",0.0,28.9,83.0,997.7,11.6,0.7,1.4,3.5,0.34,25.8,28.7
"16/07/12","18:00",0.0,28.1,86.4,998.2,335.9,0.7,2.1,344.9,0.12,25.7,28.5
"16/07/12","19:00",0.0,27.3,88.0,998.2,278.7,0.3,1.4,352.9,0.01,25.2,28.1
"16/07/12","20:00",0.0,26.6,88.7,998.6,273.8,0.3,1.0,304.2,0.00,24.6,27.8
"16/07/12","21:00",0.0,26.3,90.1,999.1,285.1,0.3,1.6,334.4,0.00,24.6,27.4
"16/07/12","22:00",0.0,26.1,90.2,999.3,297.6,0.5,1.2,334.1,0.00,24.4,27.3
"16/07/12","23:00",0.0,26.0,90.7,999.1,327.0,0.5,1.1,329.4,0.00,24.4,26.9
"16/07/12","24:00",0.0,25.8,91.3,998.9,304.2,0.3,1.0,6.0,0.00,24.3,26.8
"16/07/13","01:00",0.0,25.6,91.8,998.2,307.3,0.5,1.2,4.9,0.00,24.2,26.7
"16/07/13","02:00",0.0,25.5,92.4,997.4,341.6,0.6,1.3,342.3,0.00,24.2,26.5
"16/07/13","03:00",0.0,25.2,93.2,997.4,321.0,0.5,0.9,334.6,0.00,24.1,26.3
"16/07/13","04:00",0.0,25.3,93.5,997.4,307.0,0.3,1.0,344.7,0.00,24.2,26.5
"16/07/13","05:00",0.0,25.3,93.5,997.7,283.6,0.2,1.1,329.0,0.00,24.2,26.2
"16/07/13","06:00",0.0,25.8,93.3,997.7,328.7,0.6,1.7,346.4,0.02,24.7,26.2
"16/07/13","07:00",0.0,27.8,87.8,997.7,341.4,0.2,1.4,350.9,0.25,25.6,26.3
"16/07/13","08:00",11.6,26.8,88.9,997.9,260.0,0.3,2.2,123.0,0.27,24.9,26.5
"16/07/13","09:00",5.0,25.7,93.4,997.0,97.1,0.3,3.4,204.8,0.00,24.6,26.5
"16/07/13","10:00",0.2,27.0,90.5,997.4,3.9,0.7,1.7,341.0,0.47,25.4,26.5
"16/07/13","11:00",1.4,27.4,88.6,997.0,328.6,0.2,1.8,352.6,0.94,25.4,26.9
"16/07/13","12:00",0.0,28.4,85.7,996.3,58.1,0.2,1.6,37.2,1.27,25.8,27.8
"16/07/13","13:00",0.0,28.4,84.3,995.3,197.3,1.2,2.4,228.3,0.57,25.5,27.7
"16/07/13","14:00",0.0,29.0,79.3,994.4,160.8,0.6,2.6,225.9,0.78,25.1,28.1
"16/07/13","15:00",0.0,28.9,78.6,993.7,199.8,2.2,4.2,215.3,1.11,24.8,28.3
"16/07/13","16:00",0.0,28.3,81.3,993.2,285.6,0.3,4.2,217.9,0.60,24.8,28.1
"16/07/13","17:00",0.4,27.1,85.4,993.0,283.7,0.7,3.3,233.1,0.35,24.5,28.0
"16/07/13","18:00",2.2,26.7,87.5,993.9,285.8,0.5,2.8,229.9,0.20,24.5,27.8
"16/07/13","19:00",0.2,26.1,90.5,994.1,3.5,0.6,1.6,337.8,0.05,24.5,27.5
"16/07/13","20:00",0.0,25.7,92.5,994.1,349.8,0.3,1.6,16.0,0.00,24.4,27.1
"16/07/13","21:00",0.0,25.4,93.3,994.6,328.8,0.3,1.3,342.8,0.00,24.3,27.0
"16/07/13","22:00",0.0,25.2,93.5,994.4,319.3,0.3,1.3,343.8,0.00,24.1,26.9
"16/07/13","23:00",0.0,24.9,93.8,994.6,357.8,1.0,1.7,12.7,0.00,23.9,26.5
"16/07/13","24:00",0.0,25.0,94.1,994.8,248.9,0.1,1.3,350.6,0.00,24.0,26.3
"16/07/14","01:00",0.0,24.9,94.1,994.4,307.0,0.1,1.2,350.3,0.00,23.9,26.2
"16/07/14","02:00",0.2,24.8,94.4,994.1,357.1,0.6,1.6,350.6,0.00,23.9,26.0
"16/07/14","03:00",0.6,24.5,94.4,993.9,318.9,0.3,1.9,355.6,0.00,23.6,25.9
"16/07/14","04:00",0.0,24.4,94.9,993.7,349.2,0.5,1.2,326.6,0.00,23.6,25.7